Location: *
(50.3440°N, 18.6237°E)
Time: 18:13:11
(UTC+00:00)

Cosmos 2297 - Pass Details

Date: 30 November 2020
Orbit: 835 x 859 km, 71.0° (Epoch: 17 January)

Event Time Altitude Azimuth Distance (km) Brightness Sun altitude
Rises 15:15:31 0° 331° (NNW) 3,412 6.9 -4.9°
Reaches altitude 10° 15:18:00 10° 335° (NNW) 2,477 6.1 -5.3°
Maximum altitude 15:23:39 63° 57° (ENE) 945 3.7 -6.1°
Drops below altitude 10° 15:29:18 10° 138° (SE) 2,479 6.0 -6.9°
Sets 15:31:47 0° 142° (SE) 3,414 6.7 -7.2°
